Location: Unspecified
(35.6961°N, 0.0000°E)
Time: 10:18:00
(UTC+00:00)

UNISAT 6 - Pass Details

Date: 22 June 2019
Orbit: 607 x 689 km, 97.8° (Epoch: 16 July)

Event Time Altitude Azimuth Distance (km) Brightness Sun altitude
Rises 20:09:11 0° 26° (NNE) 2,890 ? -9.2°
Reaches altitude 10° 20:11:39 10° 39° (NE) 1,990 ? -9.6°
Maximum altitude 20:15:17 26° 96° (E) 1,241 ? -10.2°
Enters shadow 20:18:21 13° 148° (SSE) 1,818 ? -10.7°
